Regional Weather Roundup
Issued by NWS Sterling, VA

Home | Current Version | Previous Version | Graphics & Text | Print | Product List | Glossary On
Versions: 1 2 3 4 5 6 7 8 9 10 11 12 13 14 15 16 17 18 19 20 21 22 23 24 25 26 27
000
ASUS41 KLWX 181611
RWRLWX

REGIONAL WEATHER ROUNDUP
NATIONAL WEATHER SERVICE BALTIMORE MD/WASHINGTON DC
1100 AM EST SUN FEB 18 2018

Note: "FAIR" indicates few or no clouds below 12,000 feet
with no significant weather and/or obstructions to visibility.
 TC=TEMPERATURE CELSIUS

 * =Non NWS site. Station does not report precipitation (e.g. rain,
    snow, etc.), thunder, or fog.

DCZ001-MDZ009-015-VAZ040>042-051-053>054-181700-
WASHINGTON METRO

CITY           SKY/WX    TMP DP  RH WIND       PRES   REMARKS
WASHINGTON NAT FAIR      47  35  63 N9G17     30.41R
DULLES         PTSUNNY   40  35  83 S5        30.40R
ANDREWS AFB    MOSUNNY   33  32  96 NW13      30.40R WCI  24
FT BELVOIR     FAIR      47  34  61 NW8       30.41R
QUANTICO       PTSUNNY   47  30  51 N12G23    30.42R
COLLEGE PARK*  PTSUNNY   42  31  66 W8        30.40R
LEESBURG*      CLOUDY    37  36  93 S3        30.40R
MANASSAS*      FAIR      45  33  63 NW6       30.41R
GAITHERSBURG*  CLOUDY    39  33  79 W5        30.39R

$$

MDZ006>007-011-014-181700-
BALTIMORE METRO

CITY           SKY/WX    TMP DP  RH WIND       PRES   REMARKS
BWI AIRPORT    PTSUNNY   40  36  86 CALM      30.39R
MD SCIENCE CTR   N/A     41  36  82 MISG      30.43R
MARTIN STATE   PTSUNNY   39  37  93 CALM      30.41R
ANNAPOLIS      FAIR      43  37  79 NW5       30.40R
FORT MEADE*    FAIR      39  36  87 NW3       30.42R

$$

MDZ012-015-019>023-181700-
MARYLAND EASTERN SHORE

CITY           SKY/WX    TMP DP  RH WIND       PRES   REMARKS
OCEAN CITY     PTSUNNY   45  32  60 N16G25    30.40R
SALISBURY      PTSUNNY   45  33  63 NW18      30.39R
BAY BRIDGE AP* FAIR      41  36  81 W5        30.41R
CAMBRIDGE*     MOSUNNY   45  36  70 NW10      30.40R
EASTON*        PTSUNNY   46  36  66 N7        30.43R

$$

MDZ017>025-181700-
SOUTHERN MARYLAND

CITY           SKY/WX    TMP DP  RH WIND       PRES   REMARKS
PATUXENT RIVER PTSUNNY   47  35  63 NW13      30.40R
ST INIGOES     FAIR      48  31  51 N9        30.40R
LEONARDTOWN*   PTSUNNY   45  32  61 W7        30.42R

$$

MDZ003>005-181700-
NORTH CENTRAL MARYLAND

CITY           SKY/WX    TMP DP  RH WIND       PRES   REMARKS
FREDERICK*     PTSUNNY   43  30  61 CALM      30.41R
HAGERSTOWN APT PTSUNNY   42  29  59 N10       30.35R
WESTMINSTER*   FAIR      39  34  81 NW3       30.35R

$$

MDZ501>502-181700-
WESTERN MARYLAND

CITY           SKY/WX    TMP DP  RH WIND       PRES   REMARKS
OAKLAND*       CLOUDY    28  27  93 W3        30.27R
CUMBERLAND*    CLOUDY    43  30  61 N7        30.41R

$$

VAZ025>031-181700-
SHENANDOAH VALLEY

CITY           SKY/WX    TMP DP  RH WIND       PRES   REMARKS
WINCHESTER*    CLOUDY    39  28  65 NW9       30.40R WCI  33
FRONT ROYAL*   CLOUDY    41  30  65 NW5       30.38R
LURAY*         PTSUNNY   45  30  57 W5        30.38R
NEW MARKET*    PTSUNNY   41  25  53 CALM      30.38R
STAUNTON*      FAIR      42  26  52 N3        30.39R
WAYNESBORO*    FAIR      43  29  57 CALM      30.37R

$$

WVZ021-048>050-054>055-181700-
EASTERN WEST VIRGINIA PANHANDLE

CITY           SKY/WX    TMP DP  RH WIND       PRES   REMARKS
MARTINSBURG    PTSUNNY   42  28  57 N8        30.37R
PETERSBURG*    CLOUDY    40  26  56 W6        30.38R

$$

VAZ036>039-050-181700-
CENTRAL FOOTHILLS

CITY           SKY/WX    TMP DP  RH WIND       PRES   REMARKS
CHARLOTTESVILL FAIR      41  38  89 CALM      30.39R
CULPEPER*      FAIR      43  38  83 N6        30.42R
ORANGE*        FAIR      41  36  81 CALM      30.41R
GORDONSVILLE*  PTSUNNY   39  39 100 CALM      30.41R
WARRENTON*     PTSUNNY   45  32  60 NW7       30.40R

$$

VAZ055>057-181700-
NORTH AND CENTRAL PIEDMONT

CITY           SKY/WX    TMP DP  RH WIND       PRES   REMARKS
FREDERICKSBRG* FAIR      49  33  53 N13       30.40R
STAFFORD*      FAIR      49  32  52 N18G24    30.45R

$$

NCZ024-NYZ072-PAZ021-071-VAZ022-071-181700-
OTHER REGIONAL OBSERVATIONS

CITY           SKY/WX    TMP DP  RH WIND       PRES   REMARKS
NEW YORK CITY  FAIR      39  22  50 NW8G18    30.31R WCI  33
PHILADELPHIA   FAIR      40  26  57 NW14      30.38R WCI  32
PITTSBURGH     PTSUNNY   35  29  78 NW5       30.35R WCI  31
ROANOKE        FAIR      47  27  45 NE6       30.40R
RICHMOND       FAIR      48  38  68 NE7       30.41R
RALEIGH        FAIR      54  38  54 VRB7      30.37R

$$

ANZ530>537-181700-
MARINE OBSERVATIONS

STATION/POSITION TIME  TEMP    WIND        PRES
                       AIR SEA DIR/SP/G
                 (UTC) (F)     (DEG/KT/KT) (MB)
THOMAS PT LIGHT  1600   40 38  290/  6/  6   N/A
BALT KEY BRIDGE  1548   38     240/  4/  4 1029.6R
COVE POINT       1548   43     350/ 12/ 15 1029.9R
LEWISETTA        1548   46 44  350/ 10/ 15 1030.1R
SOLOMONS ISLAND  1548   45 40  310/  7/ 12 1029.3R

$$





USA.gov is the U.S. government's official web portal to all federal, state and local government web resources and services.